• In Deutschland
  • Länderverzeichnis
  • Für 7 Tage
  • Wassertemperatur
  • Satellitenkarten
  • Wetterkarte
  • Widgets
  • user-avatar
    Anmelden

    Stündliche Wetter Tibissa

    Heute, 24 April, Dienstag

    Zeit Temperatur Niederschläge Wind Luftdruck Luftfeuchtigkeit
    00:00 +19°C° 0 mm 2 m/S 687 mmHg 51%
    01:00 +18°C° 0 mm 3 m/S 687 mmHg 56%
    02:00 +17°C° 0 mm 2 m/S 686 mmHg 58%
    03:00 +17°C° 0 mm 2 m/S 686 mmHg 59%
    04:00 +16°C° 0 mm 2 m/S 686 mmHg 61%
    05:00 +17°C° 0 mm 2 m/S 686 mmHg 59%
    06:00 +17°C° 0 mm 2 m/S 687 mmHg 57%
    07:00 +18°C° 0 mm 2 m/S 687 mmHg 52%
    08:00 +20°C° 0 mm 2 m/S 688 mmHg 46%
    09:00 +22°C° 0 mm 3 m/S 688 mmHg 40%
    10:00 +25°C° 0 mm 4 m/S 689 mmHg 34%
    11:00 +26°C° 0 mm 4 m/S 689 mmHg 30%
    12:00 +27°C° 0 mm 4 m/S 688 mmHg 27%
    13:00 +28°C° 0 mm 4 m/S 688 mmHg 24%
    14:00 +28°C° 0 mm 4 m/S 688 mmHg 23%
    15:00 +28°C° 0 mm 5 m/S 688 mmHg 22%
    16:00 +29°C° 0 mm 5 m/S 687 mmHg 21%
    17:00 +27°C° 0 mm 5 m/S 687 mmHg 24%
    18:00 +26°C° 0 mm 5 m/S 687 mmHg 26%
    19:00 +25°C° 0 mm 5 m/S 686 mmHg 29%
    20:00 +23°C° 0 mm 4 m/S 686 mmHg 31%
    21:00 +22°C° 0 mm 4 m/S 686 mmHg 34%
    22:00 +21°C° 0 mm 4 m/S 686 mmHg 36%
    23:00 +20°C° 0 mm 3 m/S 686 mmHg 39%

    Morgen, 25 April, Mittwoch

    Zeit Temperatur Niederschläge Wind Luftdruck Luftfeuchtigkeit
    00:00 +20°C° 0 mm 3 m/S 686 mmHg 41%
    01:00 +19°C° 0 mm 3 m/S 686 mmHg 43%
    02:00 +19°C° 0 mm 3 m/S 686 mmHg 43%
    03:00 +18°C° 0 mm 3 m/S 685 mmHg 44%
    04:00 +18°C° 0 mm 3 m/S 685 mmHg 44%
    05:00 +18°C° 0 mm 3 m/S 685 mmHg 43%
    06:00 +18°C° 0 mm 3 m/S 685 mmHg 41%
    07:00 +19°C° 0 mm 3 m/S 686 mmHg 40%
    08:00 +21°C° 0 mm 4 m/S 686 mmHg 35%
    09:00 +22°C° 0 mm 6 m/S 686 mmHg 30%
    10:00 +24°C° 0 mm 7 m/S 687 mmHg 25%
    11:00 +26°C° 0 mm 7 m/S 686 mmHg 24%
    12:00 +27°C° 0 mm 8 m/S 686 mmHg 23%
    13:00 +28°C° 0 mm 8 m/S 686 mmHg 23%
    14:00 +28°C° 0 mm 8 m/S 686 mmHg 24%
    15:00 +28°C° 0 mm 7 m/S 685 mmHg 24%
    16:00 +28°C° 0 mm 7 m/S 685 mmHg 25%
    17:00 +26°C° 0 mm 7 m/S 685 mmHg 29%
    18:00 +24°C° 0 mm 6 m/S 685 mmHg 32%
    19:00 +23°C° 0 mm 5 m/S 684 mmHg 35%
    20:00 +21°C° 0 mm 5 m/S 684 mmHg 38%
    21:00 +20°C° 0 mm 5 m/S 684 mmHg 40%
    22:00 +19°C° 0 mm 5 m/S 684 mmHg 42%
    23:00 +19°C° 0,1 mm 5 m/S 684 mmHg 42%

    übermorgen, 26 April, Donnerstag

    Zeit Temperatur Niederschläge Wind Luftdruck Luftfeuchtigkeit
    00:00 +17°C° 0,1 mm 5 m/S 683 mmHg 42%
    01:00 +17°C° 0,1 mm 5 m/S 683 mmHg 43%
    02:00 +16°C° 0 mm 5 m/S 682 mmHg 43%
    03:00 +16°C° 0 mm 5 m/S 681 mmHg 43%
    04:00 +15°C° 0 mm 6 m/S 681 mmHg 43%
    05:00 +15°C° 0 mm 6 m/S 680 mmHg 45%
    06:00 +15°C° 0 mm 7 m/S 680 mmHg 47%
    07:00 +16°C° 0 mm 7 m/S 680 mmHg 48%
    08:00 +18°C° 0 mm 8 m/S 680 mmHg 43%
    09:00 +21°C° 0 mm 9 m/S 681 mmHg 37%
    10:00 +23°C° 0 mm 10 m/S 681 mmHg 31%
    11:00 +24°C° 0 mm 10 m/S 681 mmHg 30%
    12:00 +26°C° 0 mm 11 m/S 680 mmHg 29%
    13:00 +27°C° 0 mm 11 m/S 680 mmHg 28%
    14:00 +27°C° 0 mm 10 m/S 680 mmHg 27%
    15:00 +27°C° 0 mm 9 m/S 679 mmHg 25%
    16:00 +27°C° 0 mm 8 m/S 679 mmHg 23%
    17:00 +26°C° 0 mm 7 m/S 679 mmHg 26%
    18:00 +24°C° 0 mm 6 m/S 678 mmHg 29%
    19:00 +23°C° 0 mm 6 m/S 678 mmHg 32%
    20:00 +21°C° 0 mm 5 m/S 679 mmHg 39%
    21:00 +20°C° 0 mm 5 m/S 679 mmHg 47%
    22:00 +17°C° 0 mm 5 m/S 679 mmHg 55%
    23:00 +18°C° 0 mm 4 m/S 679 mmHg 58%

    27 April, Freitag

    Zeit Temperatur Niederschläge Wind Luftdruck Luftfeuchtigkeit
    00:00 +17°C° 0 mm 3 m/S 679 mmHg 61%
    01:00 +16°C° 0 mm 2 m/S 678 mmHg 64%
    02:00 +16°C° 0 mm 2 m/S 678 mmHg 67%
    03:00 +15°C° 0 mm 2 m/S 678 mmHg 70%
    04:00 +15°C° 0 mm 2 m/S 678 mmHg 72%
    05:00 +15°C° 0,1 mm 2 m/S 678 mmHg 74%
    06:00 +15°C° 0,1 mm 2 m/S 678 mmHg 75%
    07:00 +15°C° 0,1 mm 2 m/S 678 mmHg 77%
    08:00 +16°C° 0,1 mm 2 m/S 679 mmHg 74%
    09:00 +16°C° 0,1 mm 2 m/S 679 mmHg 71%
    10:00 +17°C° 0,1 mm 2 m/S 680 mmHg 68%
    11:00 +17°C° 0,4 mm 3 m/S 680 mmHg 66%
    12:00 +18°C° 0,4 mm 3 m/S 680 mmHg 65%
    13:00 +18°C° 0,4 mm 4 m/S 680 mmHg 63%
    14:00 +18°C° 0,6 mm 4 m/S 680 mmHg 63%
    15:00 +17°C° 0,6 mm 5 m/S 680 mmHg 62%
    16:00 +17°C° 0,6 mm 6 m/S 680 mmHg 62%
    17:00 +16°C° 0,3 mm 6 m/S 680 mmHg 65%
    18:00 +16°C° 0,3 mm 6 m/S 680 mmHg 69%
    19:00 +15°C° 0,3 mm 7 m/S 680 mmHg 73%
    20:00 +14°C° 0 mm 6 m/S 681 mmHg 76%
    21:00 +13°C° 0 mm 6 m/S 681 mmHg 79%
    22:00 +13°C° 0 mm 6 m/S 682 mmHg 81%
    23:00 +12°C° 0 mm 5 m/S 681 mmHg 82%

    28 April, Samstag

    Zeit Temperatur Niederschläge Wind Luftdruck Luftfeuchtigkeit
    00:00 +12°C° 0 mm 5 m/S 681 mmHg 82%
    01:00 +10°C° 0 mm 5 m/S 681 mmHg 82%
    02:00 +11°C° 0 mm 4 m/S 681 mmHg 84%
    03:00 +11°C° 0 mm 4 m/S 681 mmHg 85%
    04:00 +11°C° 0 mm 4 m/S 681 mmHg 86%
    05:00 +11°C° 0 mm 4 m/S 681 mmHg 85%
    06:00 +11°C° 0 mm 4 m/S 682 mmHg 83%
    07:00 +11°C° 0 mm 4 m/S 682 mmHg 82%
    08:00 +13°C° 0 mm 5 m/S 682 mmHg 73%
    09:00 +14°C° 0 mm 5 m/S 683 mmHg 64%
    10:00 +16°C° 0 mm 6 m/S 684 mmHg 54%
    11:00 +17°C° 0 mm 5 m/S 684 mmHg 51%
    12:00 +19°C° 0 mm 5 m/S 684 mmHg 47%
    13:00 +20°C° 0 mm 5 m/S 684 mmHg 44%
    14:00 +20°C° 0 mm 4 m/S 683 mmHg 43%
    15:00 +21°C° 0 mm 4 m/S 683 mmHg 43%
    16:00 +21°C° 0 mm 4 m/S 683 mmHg 42%
    17:00 +20°C° 0 mm 4 m/S 683 mmHg 45%
    18:00 +20°C° 0 mm 3 m/S 683 mmHg 47%
    19:00 +19°C° 0 mm 3 m/S 683 mmHg 50%
    20:00 +18°C° 0 mm 2 m/S 684 mmHg 55%
    21:00 +17°C° 0 mm 2 m/S 684 mmHg 60%
    22:00 +16°C° 0 mm 1 m/S 684 mmHg 65%
    23:00 +16°C° 0 mm 1 m/S 684 mmHg 67%

    29 April, Sonntag

    Zeit Temperatur Niederschläge Wind Luftdruck Luftfeuchtigkeit
    00:00 +16°C° 0 mm 1 m/S 684 mmHg 69%
    01:00 +14°C° 0 mm 0 m/S 683 mmHg 71%
    02:00 +14°C° 0 mm 0 m/S 683 mmHg 72%
    03:00 +14°C° 0 mm 0 m/S 683 mmHg 72%
    04:00 +14°C° 0 mm 1 m/S 683 mmHg 72%
    05:00 +15°C° 0 mm 1 m/S 683 mmHg 68%
    06:00 +16°C° 0 mm 1 m/S 683 mmHg 64%
    07:00 +18°C° 0 mm 1 m/S 684 mmHg 60%
    08:00 +19°C° 0 mm 2 m/S 684 mmHg 52%
    09:00 +20°C° 0 mm 3 m/S 685 mmHg 45%
    10:00 +22°C° 0 mm 3 m/S 685 mmHg 37%
    11:00 +23°C° 0 mm 4 m/S 685 mmHg 34%
    12:00 +25°C° 0 mm 4 m/S 685 mmHg 31%
    13:00 +25°C° 0 mm 5 m/S 685 mmHg 28%
    14:00 +25°C° 0 mm 5 m/S 685 mmHg 28%
    15:00 +25°C° 0 mm 5 m/S 685 mmHg 28%
    16:00 +26°C° 0 mm 4 m/S 685 mmHg 27%
    17:00 +25°C° 0 mm 4 m/S 685 mmHg 32%
    18:00 +23°C° 0 mm 4 m/S 685 mmHg 36%
    19:00 +22°C° 0 mm 4 m/S 685 mmHg 41%
    20:00 +20°C° 0 mm 3 m/S 685 mmHg 49%
    21:00 +19°C° 0 mm 3 m/S 686 mmHg 58%
    22:00 +17°C° 0 mm 2 m/S 686 mmHg 67%
    23:00 +16°C° 0 mm 3 m/S 686 mmHg 72%
    Mehr zeigen